Regional Weather Roundup
Issued by NWS Cleveland, OH

Home | Current Version | Previous Version | Graphics & Text | Print | Product List | Glossary On
Versions: 1 2 3 4 5 6 7 8 9 10 11 12 13 14 15 16 17 18 19 20 21 22 23 24 25 26 27 28 29 30 31 32 33 34 35 36 37 38 39 40 41 42 43 44 45 46 47 48 49 50
000
ASUS41 KCLE 210010
RWRCLE
OHIO REGIONAL WEATHER ROUNDUP
NATIONAL WEATHER SERVICE CLEVELAND, OH
700 PM EST MON NOV 20 2017

NOTE: "FAIR" INDICATES FEW OR NO CLOUDS BELOW 12,000 FEET WITH NO
SIGNIFICANT WEATHER AND/OR OBSTRUCTIONS TO VISIBILITY.

OHZ001>008-015>018-024>027-034-035-043-044-210100-
   NORTHWEST OHIO

CITY           SKY/WX    TMP DP  RH WIND       PRES   REMARKS
DEFIANCE       CLEAR     42  27  55 S18G25    29.92S
FINDLAY        CLEAR     41  26  55 S16       29.95S
TOLEDO EXPRESS CLEAR     43  31  62 S15G24    29.91S
TOLEDO EXEC    CLEAR     42  29  59 S16       29.93F
LIMA           CLEAR     41  26  55 S17       29.96S
$$

OHZ009>014-019>023-028>033-038-089-210100-
   NORTHEAST OHIO

CITY           SKY/WX    TMP DP  RH WIND       PRES   REMARKS
CLE-HOPKINS    PTCLDY    42  25  50 S17G25    29.99F
CLE-LAKEFRONT  CLEAR     43  24  47 S18G29    29.96S
CUY CO. ARPT   PTCLDY    43  25  49 S15G26    29.97S
LORAIN-ELYRIA  CLEAR     39  23  52 SW18      29.97F
ASHTABULA      CLEAR     39  24  55 S15       29.98S
AKRON-CANTON   CLEAR     39  23  52 S13       30.02F
WOOSTER        CLEAR     38  24  57 S12       30.02S
MANSFIELD      CLEAR     39  26  59 S16G28    30.00S
YOUNGSTOWN     PTCLDY    38  23  55 S10       30.01S
$$

OHZ042-051>053-060>062-070>072-077>081-210100-
  SOUTHWEST OHIO

CITY           SKY/WX    TMP DP  RH WIND       PRES   REMARKS
CINC-COVINGTON CLOUDY    38  28  67 S8        30.07R
CINC-LUNKEN    CLOUDY    40  27  59 SW3       30.09S
HAMILTON       CLOUDY    43  26  51 S5        30.07S
DAYTON         CLOUDY    41  26  55 S12       30.04S
WRIGHT-PAT AFB CLOUDY    40  23  50 S10       30.04S
DAYTON GENERAL CLOUDY    40  25  55 S12       30.04S
WILMINGTON     CLOUDY    37  28  70 S8        30.06F
$$

OHZ036-037-039>041-045>050-054>059-063>069-073>076-082>088-210100-
  CENTRAL AND SOUTHEAST OHIO

CITY           SKY/WX    TMP DP  RH WIND       PRES   REMARKS
COLUMBUS       MOCLDY    40  25  55 S7        30.06S
OSU AIRPORT    CLOUDY    39  26  59 S9        30.05S
BOLTON FIELD   CLEAR     36  27  69 S7        30.06S
RICKENBACK AFB CLEAR     37  25  62 S9        30.06F
NEWARK         CLEAR     40  23  50 S7        30.06F
MARION         CLEAR     39  27  62 S15       30.02S
LANCASTER      CLOUDY    39  25  57 S8        30.07F
ZANESVILLE     CLEAR     39  23  52 S8        30.08F
NEW PHILLY     NOT AVBL
$$




USA.gov is the U.S. government's official web portal to all federal, state and local government web resources and services.